Tracking 31027 objects as of 19-Jul-2025
HD Live streaming from Space Station
objects crossing your sky now

STARLINK-5953

Track STARLINK-5953 now!
10-day predictions
STARLINK-5953 is classified as:


NORAD ID: 56799
Int'l Code: 2023-078AJ
Perigee: 576.6 km
Apogee: 581.8 km
Inclination: 70.0 °
Period: 96.1 minutes
Semi major axis: 6950 km
RCS: Unknown
Launch date: May 31, 2023
Source: United States (US)
Launch site: AIR FORCE WESTERN TEST RANGE (AFWTR)
Your satellite tracking list
XMM
Track 1 satellite(s)




NASA's NSSDC Master Catalog

Two Line Element Set (TLE):
1 56799U 23078AJ  25199.85645066 -.00000114  00000-0 -17586-5 0  9992
2 56799  69.9987 214.0509 0003806 266.5954  93.4769 14.98328518117917
Source of the keplerian elements: AFSPC